Regional Weather Roundup
Issued by NWS

Home | Current Version | Previous Version | Graphics & Text | Print | Product List | Glossary On
Versions: 1 2 3 4 5 6 7 8 9 10 11 12 13 14 15 16 17 18 19 20 21 22 23 24 25 26 27 28 29 30 31 32 33 34 35 36 37 38 39 40 41 42 43 44 45 46 47 48 49 50
000
ASUS43 KIND 300509
RWRIN

WEATHER ROUNDUP FOR INDIANA
NATIONAL WEATHER SERVICE INDIANAPOLIS IN
100 AM EDT THU MAR 30 2017

NOTE: "FAIR" INDICATES FEW OR NO CLOUDS BELOW 12,000 FEET WITH NO
SIGNIFICANT WEATHER AND/OR OBSTRUCTIONS TO VISIBILITY.

* - STATION DOES NOT REPORT WEATHER SUCH AS PRECIPITATION OR FOG.

+ - STATION NOT QUALITY CONTROLLED BY THE NATIONAL WEATHER SERVICE.
    USE DATA WITH CAUTION...ESPECIALLY DEWPOINT AND RELATIVE
    HUMIDITY OBSERVATIONS.

INZ001>003-010>013-019-020-300600-
NORTHWEST INDIANA

CITY           SKY/WX    TMP DP  RH WIND       PRES   REMARKS
GARY /AIRPORT/ LGT RAIN  45  39  79 NE15      30.00F
KNOX *+        CLOUDY    46  16  29 E17       30.02F
LA PORTE +     CLOUDY    46  36  69 E13G22    30.02F
MICHIGAN CITY+ LGT RAIN  46  34  61 E8G16     30.02F
MONTICELLO +   CLOUDY    47  37  68 E15G23    29.97F
RENSSELAER +   CLOUDY    45  39  81 E22G29    29.95F
VALPARAISO     CLOUDY    47  36  65 E18       30.00F

$$

LMZ046-743>745-300600-
SOUTHERN LAKE MICHIGAN

STATION/POSITION TIME  TEMP    WIND        PRES    WAVE
                       AIR SEA DIR/SP/G            HT
                 (UTC) (F)     (DEG/KT/KT) (MB)    (FT)
BURNS HARBOR     0440   48      80/ 14/ 22 1016.9F
MICHIGAN CITY    0440   47      70/ 14/ 18   N/A

$$

INZ004-005-014>016-021>024-300600-
NORTH CENTRAL INDIANA

CITY           SKY/WX    TMP DP  RH WIND       PRES   REMARKS
GOSHEN         CLOUDY    47  33  58 E14       30.08R
LOGANSPORT +   DRIZZLE   43  37  81 E16G23    29.99F
PERU/GRISSOM   LGT RAIN  45  39  81 E16       29.97F
ROCHESTER +    DRIZZLE   46  39  76 E13       30.04F
SOUTH BEND     CLOUDY    46  35  65 E12       30.06F
WARSAW +       LGT RAIN  45  34  65 E13       30.05F

$$

INZ006>009-017-018-025>027-300600-
NORTHEAST INDIANA

CITY           SKY/WX    TMP DP  RH WIND       PRES   REMARKS
ANGOLA *+      CLOUDY    45  30  57 E17       30.07F
AUBURN +       CLOUDY    45  34  65 E17G23    30.06F
FORT WAYNE     CLOUDY    44  36  73 E16G24    30.06F
HUNTINGTON +   LGT RAIN  43  38  83 E12G21    30.02F
KENDALLVILLE + CLOUDY    46  33  62 E17       30.06F

$$

INZ028-029-035-036-043>045-051>053-300600-
WEST CENTRAL INDIANA

CITY           SKY/WX    TMP DP  RH WIND       PRES   REMARKS
CRAWFORDSVL +  CLOUDY    51  45  81 E16       29.91F
GREENCASTLE +  CLOUDY    52  45  76 E12G20    29.90F
LAFAYETTE      CLOUDY    48  43  82 E15G23    29.92F
TERRE HAUTE    CLOUDY    56  46  69 E12       29.87F

$$

INZ030>032-037>040-046>048-054>057-064-065-300600-
CENTRAL INDIANA

CITY           SKY/WX    TMP DP  RH WIND       PRES   REMARKS
CP ATTERBURY + CLOUDY    54  45  71 E13       29.93F
FISHERS *+     CLOUDY    54  45  71 E5        29.95
FRANKFORT +    CLOUDY    52  46  80 E12       29.96F
GREENWOOD *+   CLOUDY    54  45  70 SE9       29.94F
INDIANAPOLIS   CLOUDY    54  43  66 E15       29.92F
-EAGLE CREEK   CLOUDY    55  42  61 E12       29.92F
KOKOMO +       LGT RAIN  46  40  79 NE10      30.03R
MARION +       CLOUDY    47  37  68 E14       30.01F
MT COMFORT *+  CLOUDY    54  43  66 SE9G17    29.96F
SHELBYVILLE    CLOUDY    56  42  59 SE16      29.93F
ZIONSVILLE +   CLOUDY    53  42  67 E13       29.96F

$$

INZ033-034-041-042-049-050-058-059-300600-
EAST CENTRAL INDIANA

CITY           SKY/WX    TMP DP  RH WIND       PRES   REMARKS
MUNCIE         CLOUDY    50  41  71 E13       30.00S
RICHMOND +     PTCLDY    46  41  81 SE9       30.00R

$$

INZ060-061-067>069-081>083-085>088-300600-
SOUTHWEST INDIANA

CITY           SKY/WX    TMP DP  RH WIND       PRES   REMARKS
EVANSVILLE     CLOUDY    61  51  70 E10       29.85F
HUNTINGBURG *+ CLOUDY    60  51  72 E12G22    29.87F
WASHINGTON +   CLOUDY    56  46  68 MISG      29.87F

$$

INZ062-063-066-070>080-084-089>092-300600-
SOUTH CENTRAL AND SOUTHEAST INDIANA

CITY           SKY/WX    TMP DP  RH WIND       PRES   REMARKS
BEDFORD +      MOCLDY    55  45  67 E13G20    29.91F
BLOOMINGTON    CLOUDY    54  45  71 SE15      29.89F
MADISON *+     CLOUDY    54  43  66 E14G20    29.97F
NORTH VERNON + CLOUDY    55  43  62 E14G20    29.98
SEYMOUR +      CLOUDY    57  45  62 E8        29.94F

$$




USA.gov is the U.S. government's official web portal to all federal, state and local government web resources and services.